CW8429 Weather Reports


Display with metric or nautical units.
time (UTC)temp
F
wind
direction
speed
MPH
gust
MPH
rain 1hr
in
rain 24hr
in
rain mn
in
humidity
%
barometer
mb
20260904090639 66 119 9.0 14.0 0.00 0.00 0.00 20 1011.1
20260904085641 66 153 8.0 12.0 0.00 0.00 0.00 21 1011.1
20260904084630 66 157 9.0 14.0 0.00 0.00 0.00 21 1011.0
20260904083624 66 117 8.0 16.0 0.00 0.00 0.00 22 1011.0
20260904082615 66 94 9.0 17.0 0.00 0.00 0.00 22 1011.0
20260904081626 66 76 12.0 19.0 0.00 0.00 0.00 22 1011.0
20260904080615 67 113 10.0 16.0 0.00 0.00 0.00 22 1010.9
20260904075640 67 103 9.0 19.0 0.00 0.00 0.00 23 1010.9
20260904074629 67 143 9.0 16.0 0.00 0.00 0.00 23 1011.1
20260904073619 67 117 10.0 19.0 0.00 0.00 0.00 22 1011.2
20260904072629 67 120 8.0 14.0 0.00 0.00 0.00 23 1011.2
20260904071624 67 104 11.0 15.0 0.00 0.00 0.00 23 1011.3
20260904070614 66 132 8.0 14.0 0.00 0.00 0.00 23 1011.3
20260904065616 66 95 8.0 13.0 0.00 0.00 0.00 24 1011.3
20260904064627 65 123 8.0 14.0 0.00 0.00 0.00 25 1011.2
20260904063620 60 153 4.0 8.0 0.00 0.00 0.00 30 1011.1
20260904062650 59 311 1.0 4.0 0.00 0.00 0.00 39 1011.2
20260904061619 59 312 0.0 0.0 0.00 0.00 0.00 39 1011.3
20260904060618 59 312 0.0 0.0 0.00 0.00 0.00 38 1011.3
20260904055621 58 312 0.0 4.0 0.00 0.00 0.00 37 1011.3
20260904054617 59 312 2.0 4.0 0.00 0.00 0.00 36 1011.3
20260904053648 59 313 1.0 4.0 0.00 0.00 0.00 35 1011.4
20260904052619 59 314 2.0 6.0 0.00 0.00 0.00 35 1011.3
20260904051630 62 309 3.0 6.0 0.00 0.00 0.00 34 1011.3
20260904050625 64 150 5.0 13.0 0.00 0.00 0.00 26 1011.3
20260904045629 58 321 1.0 5.0 0.00 0.00 0.00 40 1011.4
20260904044620 59 318 3.0 5.0 0.00 0.00 0.00 38 1011.5
20260904043614 60 327 0.0 0.0 0.00 0.00 0.00 36 1011.6
20260904042626 61 327 3.0 6.0 0.00 0.00 0.00 34 1011.6
20260904041617 63 300 1.0 5.0 0.00 0.00 0.00 32 1011.6
20260904040648 65 166 2.0 8.0 0.00 0.00 0.00 29 1011.6
20260904035614 64 140 4.0 12.0 0.00 0.00 0.00 29 1011.6
20260904034625 63 74 8.0 12.0 0.00 0.00 0.00 29 1011.4
20260904033617 63 79 9.0 12.0 0.00 0.00 0.00 29 1011.4
20260904032649 64 128 6.0 11.0 0.00 0.00 0.00 29 1011.5
20260904031623 64 113 6.0 11.0 0.00 0.00 0.00 29 1011.6
20260904030614 64 111 7.0 9.0 0.00 0.00 0.00 28 1011.6
20260904025617 65 130 5.0 9.0 0.00 0.00 0.00 28 1011.6
20260904024629 66 121 5.0 11.0 0.00 0.00 0.00 27 1011.6
20260904023623 67 111 7.0 10.0 0.00 0.00 0.00 26 1011.3
20260904022614 68 114 6.0 10.0 0.00 0.00 0.00 26 1011.4
20260904021623 68 122 6.0 8.0 0.00 0.00 0.00 26 1011.4
20260904020635 69 119 4.0 7.0 0.00 0.00 0.00 26 1011.4
20260904015620 71 173 4.0 5.0 0.00 0.00 0.00 25 1011.4
20260904014631 72 196 0.0 2.0 0.00 0.00 0.00 24 1011.5
20260904013619 73 196 0.0 3.0 0.00 0.00 0.00 22 1011.4
20260904012629 74 198 1.0 7.0 0.00 0.00 0.00 22 1011.4
20260904011622 74 202 3.0 7.0 0.00 0.00 0.00 20 1011.3
20260904010633 75 141 4.0 7.0 0.00 0.00 0.00 19 1011.3
20260904005636 76 313 3.0 9.0 0.00 0.00 0.00 20 1011.2
20260904004624 76 340 3.0 8.0 0.00 0.00 0.00 19 1011.3
20260904003618 76 85 5.0 9.0 0.00 0.00 0.00 18 1011.3
20260904002615 76 294 2.0 9.0 0.00 0.00 0.00 19 1011.3
20260904001645 76 159 7.0 15.0 0.00 0.00 0.00 17 1011.3
20260904000614 77 125 5.0 10.0 0.00 0.00 0.00 18 1011.4
20260903235615 77 167 4.0 11.0 0.00 0.00 0.00 18 1011.4
20260903234627 76 158 5.0 14.0 0.00 0.00 0.00 19 1011.4
20260903233617 76 100 7.0 15.0 0.00 0.00 0.00 18 1011.6
20260903232628 76 150 7.0 11.0 0.00 0.00 0.00 19 1011.5
20260903231617 76 295 3.0 15.0 0.00 0.00 0.00 20 1011.6
20260903230631 77 258 2.0 7.0 0.00 0.00 0.00 18 1011.7
20260903225615 77 156 5.0 10.0 0.00 0.00 0.00 19 1011.8
20260903224626 77 126 3.0 14.0 0.00 0.00 0.00 17 1011.9
20260903223617 77 165 5.0 13.0 0.00 0.00 0.00 18 1012.1
20260903222613 77 172 5.0 16.0 0.00 0.00 0.00 18 1012.0
20260903221624 76 263 4.0 11.0 0.00 0.00 0.00 19 1012.2
20260903220615 76 147 6.0 8.0 0.00 0.00 0.00 18 1012.2
20260903215618 76 315 4.0 14.0 0.00 0.00 0.00 18 1012.3
20260903214613 76 134 3.0 9.0 0.00 0.00 0.00 20 1012.4
20260903213624 75 271 3.0 15.0 0.00 0.00 0.00 18 1012.6
20260903212615 76 103 5.0 9.0 0.00 0.00 0.00 19 1012.7
20260903211626 75 184 4.0 10.0 0.00 0.00 0.00 19 1012.8
20260903210622 75 167 8.0 13.0 0.00 0.00 0.00 19 1013.0
20260903205624 75 178 4.0 11.0 0.00 0.00 0.00 19 1013.0
20260903204616 75 253 4.0 9.0 0.00 0.00 0.00 19 1013.0
20260903203631 76 187 4.0 13.0 0.00 0.00 0.00 18 1013.2
20260903202622 75 290 3.0 7.0 0.00 0.00 0.00 20 1013.4
20260903201635 74 188 5.0 13.0 0.00 0.00 0.00 17 1013.5
20260903200625 75 161 4.0 12.0 0.00 0.00 0.00 18 1013.6
20260903195613 75 101 5.0 16.0 0.00 0.00 0.00 18 1013.6
20260903194624 74 105 5.0 11.0 0.00 0.00 0.00 19 1013.7
20260903193615 74 94 6.0 17.0 0.00 0.00 0.00 20 1013.8
20260903192626 74 184 5.0 10.0 0.00 0.00 0.00 18 1014.1
20260903191621 75 198 5.0 14.0 0.00 0.00 0.00 20 1014.1
20260903190612 73 197 3.0 9.0 0.00 0.00 0.00 22 1014.3
20260903185616 73 277 4.0 8.0 0.00 0.00 0.00 24 1014.3
20260903184647 72 290 2.0 6.0 0.00 0.00 0.00 25 1014.5
20260903183621 72 289 4.0 9.0 0.00 0.00 0.00 32 1014.6
20260903182613 71 320 4.0 6.0 0.00 0.00 0.00 30 1014.7
20260903181623 70 302 4.0 8.0 0.00 0.00 0.00 39 1014.7
20260903180621 69 331 4.0 8.0 0.00 0.00 0.00 40 1015.0
20260903175627 68 313 2.0 7.0 0.00 0.00 0.00 44 1015.1
20260903174638 67 329 6.0 9.0 0.00 0.00 0.00 43 1015.2
20260903173628 67 306 5.0 8.0 0.00 0.00 0.00 42 1015.3
20260903172617 66 290 5.0 9.0 0.00 0.00 0.00 41 1015.4
20260903171630 66 337 4.0 9.0 0.00 0.00 0.00 39 1015.4
20260903170620 65 319 5.0 9.0 0.00 0.00 0.00 38 1015.3
20260903165621 64 290 5.0 10.0 0.00 0.00 0.00 42 1015.4
20260903164630 64 323 6.0 8.0 0.00 0.00 0.00 42 1015.5
20260903163623 64 302 3.0 6.0 0.00 0.00 0.00 43 1015.7
20260903162614 63 287 3.0 8.0 0.00 0.00 0.00 45 1015.6
20260903161623 63 300 3.0 7.0 0.00 0.00 0.00 48 1015.7
20260903160613 63 298 2.0 4.0 0.00 0.00 0.00 48 1015.5
20260903155620 63 298 3.0 5.0 0.00 0.00 0.00 49 1015.7
20260903154629 62 313 1.0 4.0 0.00 0.00 0.00 50 1015.7
20260903153617 61 311 3.0 5.0 0.00 0.00 0.00 52 1015.7
20260903152647 60 271 0.0 0.0 0.00 0.00 0.00 51 1015.8
20260903151619 59 214 0.0 3.0 0.00 0.00 0.00 48 1015.8
20260903150627 58 209 1.0 4.0 0.00 0.00 0.00 46 1016.0
20260903145629 57 197 3.0 6.0 0.00 0.00 0.00 46 1015.9
20260903144618 56 186 3.0 6.0 0.00 0.00 0.00 48 1015.8
20260903143651 53 127 0.0 3.0 0.00 0.00 0.00 56 1015.8
20260903142619 52 127 2.0 4.0 0.00 0.00 0.00 59 1015.8
20260903141628 51 120 3.0 7.0 0.00 0.00 0.00 60 1015.8
20260903140617 51 127 4.0 8.0 0.00 0.00 0.00 60 1015.7
20260903135620 50 132 4.0 9.0 0.00 0.00 0.00 62 1015.6
20260903134629 49 123 6.0 9.0 0.00 0.00 0.00 62 1015.5
20260903133619 49 115 4.0 8.0 0.00 0.00 0.00 62 1015.5
20260903132649 49 142 5.0 10.0 0.00 0.00 0.00 61 1015.3
20260903131641 49 115 7.0 10.0 0.00 0.00 0.00 62 1015.4
20260903130629 49 115 8.0 10.0 0.00 0.00 0.00 61 1015.3
20260903125651 49 134 6.0 9.0 0.00 0.00 0.00 60 1015.1
20260903124641 50 118 5.0 9.0 0.00 0.00 0.00 59 1014.9
20260903123628 50 115 6.0 9.0 0.00 0.00 0.00 58 1014.9
20260903122619 50 113 8.0 10.0 0.00 0.00 0.00 57 1014.9
20260903121628 50 125 7.0 9.0 0.00 0.00 0.00 56 1014.7
20260903120619 51 123 3.0 9.0 0.00 0.00 0.00 55 1014.8
20260903115622 51 125 5.0 9.0 0.00 0.00 0.00 54 1014.7
20260903114616 51 94 5.0 10.0 0.00 0.00 0.00 53 1014.5
20260903113626 51 142 7.0 9.0 0.00 0.00 0.00 53 1014.3
20260903112637 51 117 8.0 10.0 0.00 0.00 0.00 53 1014.2
20260903111626 51 148 4.0 9.0 0.00 0.00 0.00 52 1014.2
20260903110638 51 147 6.0 10.0 0.00 0.00 0.00 52 1014.1
20260903105614 52 126 7.0 10.0 0.00 0.00 0.00 52 1014.0
20260903104627 52 106 7.0 10.0 0.00 0.00 0.00 52 1013.9
20260903103618 53 123 8.0 10.0 0.00 0.00 0.00 52 1013.8
20260903102627 53 121 8.0 11.0 0.00 0.00 0.00 51 1013.9
20260903101620 53 127 8.0 10.0 0.00 0.00 0.00 51 1013.7
20260903100630 54 128 7.0 10.0 0.00 0.00 0.00 51 1013.7
20260903095634 55 127 6.0 9.0 0.00 0.00 0.00 51 1013.7
20260903094624 55 121 6.0 9.0 0.00 0.00 0.00 51 1013.7
20260903093618 55 115 5.0 7.0 0.00 0.00 0.00 51 1013.6
20260903092628 56 119 4.0 7.0 0.00 0.00 0.00 50 1013.7
20260903091618 56 130 4.0 5.0 0.00 0.00 0.00 49 1013.7